SKYNET 4C

Last updated on Fri Jun 19 2026 17:09:29 GMT+0000 (Coordinated Universal Time)

1 20776U 90079A 26162.20198485 .00000132 00000+0 00000+0 0 9995 2 20776 13.3424 349.8525 0002400 96.2313 279.5534 1.00274127130831
UTC large
Height (km)
Speed (km/s)
/
Latitude / Longitude
Inclination (degrees)
Orbital Period (minutes)
Azimuth
Elevation
Range (km)
Doppler Factor

Next 0 passes for location: London (51.5072 / 0.1276)

No passes found over London.
SKYNET 4C